CW1793 Weather Reports


Display with metric or nautical units.
time (UTC)temp
F
wind
direction
speed
MPH
gust
MPH
rain 1hr
in
rain 24hr
in
rain mn
in
humidity
%
barometer
mb
20180923040008 64 146 9.0 15.0 0.00 0.00 0.00 28 1009.5
20180923034507 65 141 9.0 13.0 0.00 0.00 0.00 28 1009.5
20180923033007 65 156 8.0 15.0 0.00 0.00 0.00 28 1009.5
20180923031507 65 144 9.0 14.0 0.00 0.00 0.00 27 1009.5
20180923030009 65 138 6.0 11.0 0.00 0.00 0.00 25 1009.7
20180923024504 67 137 7.0 11.0 0.00 0.00 0.00 23 1009.7
20180923023003 67 167 7.0 12.0 0.00 0.00 0.00 22 1009.7
20180923021503 68 155 8.0 11.0 0.00 0.00 0.00 21 1009.4
20180923020002 67 150 3.0 7.0 0.00 0.00 0.00 21 1009.4
20180923014503 68 128 5.0 8.0 0.00 0.00 0.00 20 1009.4
20180923011653 70 100 2.0 7.0 0.00 0.00 0.00 18 1009.4
20180923010137 71 113 3.0 7.0 0.00 0.00 0.00 17 1009.4
20180923004621 73 101 4.0 8.0 0.00 0.00 0.00 14 1009.4
20180923003112 74 95 7.0 11.0 0.00 0.00 0.00 12 1009.5
20180923001605 76 92 8.0 11.0 0.00 0.00 0.00 12 1009.4
20180923000145 77 86 9.0 15.0 0.00 0.00 0.00 11 1009.3
20180922234628 78 107 6.0 13.0 0.00 0.00 0.00 10 1009.4
20180922233113 80 76 5.0 11.0 0.00 0.00 0.00 11 1009.4
20180922231603 80 104 7.0 12.0 0.00 0.00 0.00 10 1009.5
20180922230242 81 107 11.0 16.0 0.00 0.00 0.00 9 1009.8
20180922224615 84 59 5.0 13.0 0.00 0.00 0.00 9 1009.6
20180922221706 84 278 2.0 6.0 0.00 0.00 0.00 7 1009.9
20180922220100 84 178 4.0 15.0 0.00 0.00 0.00 8 1010.1
20180922214557 85 69 7.0 13.0 0.00 0.00 0.00 9 1010.2
20180922213108 85 65 3.0 12.0 0.00 0.00 0.00 9 1010.5
20180922211551 84 111 2.0 5.0 0.00 0.00 0.00 9 1010.7
20180922210046 85 186 5.0 11.0 0.00 0.00 0.00 8 1011.0
20180922204641 85 74 4.0 10.0 0.00 0.00 0.00 9 1011.2
20180922203045 85 56 3.0 9.0 0.00 0.00 0.00 9 1011.7
20180922201628 85 49 3.0 10.0 0.00 0.00 0.00 9 1012.0
20180922200036 85 51 3.0 9.0 0.00 0.00 0.00 9 1012.4
20180922194609 83 355 3.0 6.0 0.00 0.00 0.00 9 1012.7
20180922193105 83 157 3.0 9.0 0.00 0.00 0.00 7 1013.1
20180922191526 82 9 4.0 11.0 0.00 0.00 0.00 11 1013.5
20180922190024 82 69 3.0 9.0 0.00 0.00 0.00 10 1013.8
20180922184521 80 339 4.0 11.0 0.00 0.00 0.00 10 1014.1
20180922183027 82 264 4.0 10.0 0.00 0.00 0.00 9 1014.4
20180922181533 80 327 2.0 10.0 0.00 0.00 0.00 13 1014.7
20180922180022 78 303 7.0 12.0 0.00 0.00 0.00 9 1014.9
20180922174529 77 284 3.0 12.0 0.00 0.00 0.00 11 1015.0
20180922173029 78 276 3.0 11.0 0.00 0.00 0.00 13 1015.1
20180922171504 77 259 6.0 13.0 0.00 0.00 0.00 13 1015.2
20180922170117 76 327 9.0 16.0 0.00 0.00 0.00 13 1015.4
20180922164603 75 322 5.0 13.0 0.00 0.00 0.00 15 1015.5
20180922163107 74 277 8.0 16.0 0.00 0.00 0.00 17 1015.6
20180922161604 73 257 9.0 17.0 0.00 0.00 0.00 20 1015.7
20180922160124 72 267 9.0 17.0 0.00 0.00 0.00 23 1015.8
20180922154557 71 249 10.0 18.0 0.00 0.00 0.00 24 1015.8
20180922153055 69 257 8.0 16.0 0.00 0.00 0.00 30 1015.8
20180922151618 67 257 11.0 18.0 0.00 0.00 0.00 32 1015.8
20180922150038 66 232 11.0 16.0 0.00 0.00 0.00 35 1016.0
20180922144532 64 246 12.0 18.0 0.00 0.00 0.00 37 1016.1
20180922143030 63 248 8.0 16.0 0.00 0.00 0.00 42 1016.1
20180922141523 61 225 7.0 12.0 0.00 0.00 0.00 44 1016.1
20180922140042 60 254 6.0 10.0 0.00 0.00 0.00 46 1016.1
20180922134529 59 219 6.0 10.0 0.00 0.00 0.00 48 1016.0
20180922133011 57 247 7.0 10.0 0.00 0.00 0.00 50 1015.9
20180922131514 57 240 7.0 10.0 0.00 0.00 0.00 49 1016.1
20180922130006 56 223 7.0 10.0 0.00 0.00 0.00 51 1016.0
20180922124507 56 238 6.0 9.0 0.00 0.00 0.00 52 1016.0
20180922123003 56 236 6.0 10.0 0.00 0.00 0.00 53 1016.0
20180922121502 56 239 7.0 11.0 0.00 0.00 0.00 53 1016.1
20180922120002 56 236 6.0 10.0 0.00 0.00 0.00 53 1015.8
20180922114502 56 225 6.0 9.0 0.00 0.00 0.00 54 1015.7
20180922113103 57 222 5.0 8.0 0.00 0.00 0.00 54 1015.6
20180922111704 57 238 7.0 11.0 0.00 0.00 0.00 53 1015.7
20180922110118 56 241 7.0 11.0 0.00 0.00 0.00 56 1015.8
20180922104639 55 239 4.0 10.0 0.00 0.00 0.00 59 1016.0
20180922103113 53 236 6.0 9.0 0.00 0.00 0.00 62 1016.1
20180922101654 53 238 5.0 9.0 0.00 0.00 0.00 63 1016.1
20180922100127 53 226 4.0 8.0 0.00 0.00 0.00 62 1016.2
20180922094556 53 229 5.0 7.0 0.00 0.00 0.00 64 1016.3
20180922093131 52 255 2.0 7.0 0.00 0.00 0.00 67 1016.3
20180922091645 51 99 0.0 4.0 0.00 0.00 0.00 67 1016.4
20180922090214 52 182 0.0 3.0 0.00 0.00 0.00 67 1016.3
20180922084621 52 182 0.0 5.0 0.00 0.00 0.00 65 1016.3
20180922083221 53 191 6.0 10.0 0.00 0.00 0.00 64 1016.4
20180922081555 53 212 5.0 10.0 0.00 0.00 0.00 64 1016.3
20180922080058 53 180 6.0 10.0 0.00 0.00 0.00 63 1016.5
20180922074550 53 157 6.0 10.0 0.00 0.00 0.00 64 1016.5
20180922073047 53 227 7.0 12.0 0.00 0.00 0.00 63 1016.5
20180922071534 54 227 8.0 15.0 0.00 0.00 0.00 62 1016.7
20180922070105 54 223 12.0 22.0 0.00 0.00 0.00 61 1016.7
20180922064536 55 146 14.0 24.0 0.00 0.00 0.00 60 1016.9
20180922063045 55 166 16.0 31.0 0.00 0.00 0.00 59 1017.0
20180922061536 55 174 14.0 25.0 0.00 0.00 0.00 59 1017.2
20180922060047 56 192 13.0 30.0 0.00 0.00 0.00 59 1017.4
20180922054554 56 182 15.0 27.0 0.00 0.00 0.00 58 1017.6
20180922053022 56 173 12.0 23.0 0.00 0.00 0.00 57 1017.8
20180922051524 57 198 14.0 25.0 0.00 0.00 0.00 56 1018.0
20180922050028 57 193 15.0 29.0 0.00 0.00 0.00 57 1017.9
20180922044517 58 180 16.0 28.0 0.00 0.00 0.00 56 1017.9
20180922043017 58 166 14.0 28.0 0.00 0.00 0.00 56 1017.9
20180922041527 58 165 17.0 31.0 0.00 0.00 0.00 56 1017.7